• In Uzbekistan
  • List of Countries
  • For 7 days
  • Water Temperature
  • Satellite Maps
  • Weather Map
  • Weather Widgets
  • user-avatar
    Login

    Hourly Weather Odienne

    Today, 15 December, Friday

    Time Temperature Precipitation Wind Pressure Humidity
    00:00 +29°C° 0 mm 1 mps 723 mmHg 32%
    01:00 +29°C° 0 mm 1 mps 723 mmHg 32%
    02:00 +28°C° 0 mm 1 mps 723 mmHg 32%
    03:00 +27°C° 0 mm 1 mps 723 mmHg 32%
    04:00 +27°C° 0 mm 1 mps 723 mmHg 32%
    05:00 +26°C° 0 mm 1 mps 723 mmHg 31%
    06:00 +27°C° 0 mm 1 mps 723 mmHg 28%
    07:00 +28°C° 0 mm 2 mps 724 mmHg 24%
    08:00 +30°C° 0 mm 2 mps 724 mmHg 21%
    09:00 +32°C° 0 mm 2 mps 724 mmHg 20%
    10:00 +35°C° 0 mm 2 mps 723 mmHg 18%
    11:00 +37°C° 0 mm 3 mps 724 mmHg 16%
    12:00 +37°C° 0 mm 3 mps 723 mmHg 16%
    13:00 +38°C° 0 mm 2 mps 722 mmHg 17%
    14:00 +38°C° 0 mm 2 mps 722 mmHg 17%
    15:00 +37°C° 0 mm 2 mps 722 mmHg 19%
    16:00 +34°C° 0 mm 1 mps 721 mmHg 21%
    17:00 +33°C° 0 mm 1 mps 721 mmHg 23%
    18:00 +31°C° 0 mm 1 mps 722 mmHg 24%
    19:00 +30°C° 0 mm 1 mps 722 mmHg 26%
    20:00 +29°C° 0 mm 1 mps 722 mmHg 27%
    21:00 +28°C° 0 mm 1 mps 722 mmHg 28%
    22:00 +28°C° 0 mm 1 mps 722 mmHg 29%
    23:00 +27°C° 0 mm 1 mps 722 mmHg 30%

    Tomorrow, 16 December, Saturday

    Time Temperature Precipitation Wind Pressure Humidity
    00:00 +26°C° 0 mm 1 mps 722 mmHg 31%
    01:00 +26°C° 0 mm 1 mps 722 mmHg 32%
    02:00 +25°C° 0 mm 1 mps 722 mmHg 33%
    03:00 +25°C° 0 mm 1 mps 722 mmHg 34%
    04:00 +24°C° 0 mm 1 mps 722 mmHg 35%
    05:00 +24°C° 0 mm 1 mps 722 mmHg 36%
    06:00 +26°C° 0 mm 1 mps 723 mmHg 33%
    07:00 +27°C° 0 mm 1 mps 724 mmHg 30%
    08:00 +29°C° 0 mm 2 mps 724 mmHg 27%
    09:00 +32°C° 0 mm 2 mps 724 mmHg 23%
    10:00 +35°C° 0 mm 2 mps 724 mmHg 19%
    11:00 +38°C° 0 mm 3 mps 724 mmHg 15%
    12:00 +38°C° 0 mm 3 mps 723 mmHg 15%
    13:00 +39°C° 0 mm 3 mps 723 mmHg 14%
    14:00 +39°C° 0 mm 3 mps 722 mmHg 14%
    15:00 +38°C° 0 mm 2 mps 722 mmHg 16%
    16:00 +36°C° 0 mm 2 mps 722 mmHg 18%
    17:00 +33°C° 0 mm 1 mps 721 mmHg 19%
    18:00 +32°C° 0 mm 1 mps 722 mmHg 20%
    19:00 +31°C° 0 mm 1 mps 723 mmHg 21%
    20:00 +29°C° 0 mm 1 mps 723 mmHg 22%
    21:00 +29°C° 0 mm 1 mps 723 mmHg 25%
    22:00 +28°C° 0 mm 1 mps 723 mmHg 28%
    23:00 +27°C° 0 mm 1 mps 723 mmHg 30%

    Day after tomorrow, 17 December, Sunday

    Time Temperature Precipitation Wind Pressure Humidity
    00:00 +27°C° 0 mm 1 mps 723 mmHg 34%
    01:00 +26°C° 0 mm 1 mps 722 mmHg 38%
    02:00 +26°C° 0 mm 1 mps 722 mmHg 42%
    03:00 +25°C° 0 mm 1 mps 722 mmHg 47%
    04:00 +25°C° 0 mm 1 mps 722 mmHg 51%
    05:00 +24°C° 0 mm 1 mps 722 mmHg 56%
    06:00 +26°C° 0 mm 1 mps 723 mmHg 52%
    07:00 +28°C° 0 mm 1 mps 724 mmHg 48%
    08:00 +29°C° 0 mm 1 mps 724 mmHg 44%
    09:00 +32°C° 0 mm 1 mps 724 mmHg 36%
    10:00 +34°C° 0 mm 1 mps 724 mmHg 28%
    11:00 +38°C° 0 mm 2 mps 724 mmHg 20%
    12:00 +38°C° 0 mm 2 mps 723 mmHg 19%
    13:00 +39°C° 0 mm 2 mps 722 mmHg 17%
    14:00 +40°C° 0 mm 2 mps 721 mmHg 15%
    15:00 +37°C° 0 mm 1 mps 721 mmHg 17%
    16:00 +35°C° 0 mm 1 mps 721 mmHg 19%
    17:00 +33°C° 0 mm 1 mps 721 mmHg 20%
    18:00 +32°C° 0 mm 1 mps 722 mmHg 21%
    19:00 +31°C° 0 mm 1 mps 722 mmHg 21%
    20:00 +29°C° 0 mm 1 mps 723 mmHg 22%
    21:00 +29°C° 0 mm 1 mps 723 mmHg 22%
    22:00 +28°C° 0 mm 1 mps 723 mmHg 22%
    23:00 +27°C° 0 mm 1 mps 723 mmHg 23%

    18 December, Monday

    Time Temperature Precipitation Wind Pressure Humidity
    00:00 +27°C° 0 mm 1 mps 722 mmHg 24%
    01:00 +26°C° 0 mm 1 mps 722 mmHg 24%
    02:00 +25°C° 0 mm 1 mps 721 mmHg 25%
    03:00 +25°C° 0 mm 1 mps 721 mmHg 26%
    04:00 +25°C° 0 mm 1 mps 721 mmHg 26%
    05:00 +22°C° 0 mm 0 mps 721 mmHg 27%
    06:00 +26°C° 0 mm 1 mps 722 mmHg 25%
    07:00 +29°C° 0 mm 1 mps 723 mmHg 23%
    08:00 +31°C° 0 mm 1 mps 724 mmHg 21%
    09:00 +33°C° 0 mm 1 mps 723 mmHg 18%
    10:00 +36°C° 0 mm 1 mps 723 mmHg 16%
    11:00 +39°C° 0 mm 2 mps 723 mmHg 14%
    12:00 +39°C° 0 mm 2 mps 722 mmHg 13%
    13:00 +40°C° 0 mm 1 mps 721 mmHg 13%
    14:00 +41°C° 0 mm 1 mps 720 mmHg 12%
    15:00 +39°C° 0 mm 1 mps 720 mmHg 14%
    16:00 +36°C° 0 mm 1 mps 720 mmHg 16%
    17:00 +34°C° 0 mm 1 mps 720 mmHg 18%
    18:00 +32°C° 0 mm 1 mps 720 mmHg 19%
    19:00 +31°C° 0 mm 1 mps 721 mmHg 20%
    20:00 +30°C° 0 mm 1 mps 721 mmHg 21%
    21:00 +29°C° 0 mm 1 mps 721 mmHg 21%
    22:00 +28°C° 0 mm 1 mps 721 mmHg 22%
    23:00 +25°C° 0 mm 0 mps 721 mmHg 23%

    19 December, Tuesday

    Time Temperature Precipitation Wind Pressure Humidity
    00:00 +27°C° 0 mm 1 mps 721 mmHg 25%
    01:00 +26°C° 0 mm 1 mps 721 mmHg 28%
    02:00 +25°C° 0 mm 1 mps 720 mmHg 31%
    03:00 +25°C° 0 mm 1 mps 721 mmHg 35%
    04:00 +24°C° 0 mm 1 mps 721 mmHg 39%
    05:00 +24°C° 0 mm 1 mps 721 mmHg 43%
    06:00 +25°C° 0 mm 1 mps 722 mmHg 43%
    07:00 +27°C° 0 mm 2 mps 723 mmHg 43%
    08:00 +29°C° 0 mm 2 mps 723 mmHg 44%
    09:00 +31°C° 0 mm 2 mps 723 mmHg 36%
    10:00 +34°C° 0 mm 1 mps 723 mmHg 29%
    11:00 +36°C° 0 mm 1 mps 723 mmHg 22%
    12:00 +37°C° 0 mm 1 mps 722 mmHg 19%
    13:00 +39°C° 0 mm 1 mps 721 mmHg 17%
    14:00 +40°C° 0 mm 1 mps 720 mmHg 14%
    15:00 +37°C° 0 mm 1 mps 720 mmHg 16%
    16:00 +33°C° 0 mm 0 mps 720 mmHg 19%
    17:00 +31°C° 0 mm 0 mps 720 mmHg 21%
    18:00 +30°C° 0 mm 0 mps 720 mmHg 21%
    19:00 +28°C° 0 mm 0 mps 721 mmHg 22%
    20:00 +27°C° 0 mm 0 mps 722 mmHg 23%
    21:00 +27°C° 0 mm 0 mps 721 mmHg 25%
    22:00 +26°C° 0 mm 0 mps 721 mmHg 27%
    23:00 +28°C° 0 mm 1 mps 721 mmHg 29%

    20 December, Wednesday

    Time Temperature Precipitation Wind Pressure Humidity
    00:00 +27°C° 0 mm 1 mps 721 mmHg 34%
    01:00 +26°C° 0 mm 1 mps 721 mmHg 40%
    02:00 +26°C° 0 mm 1 mps 720 mmHg 46%
    03:00 +25°C° 0 mm 1 mps 721 mmHg 51%
    04:00 +25°C° 0 mm 1 mps 721 mmHg 57%
    05:00 +24°C° 0 mm 1 mps 721 mmHg 62%
    06:00 +26°C° 0 mm 1 mps 722 mmHg 60%
    07:00 +27°C° 0 mm 2 mps 723 mmHg 57%
    08:00 +29°C° 0 mm 2 mps 723 mmHg 55%
    09:00 +31°C° 0 mm 2 mps 723 mmHg 47%
    10:00 +34°C° 0 mm 2 mps 723 mmHg 39%
    11:00 +37°C° 0 mm 2 mps 723 mmHg 30%
    12:00 +37°C° 0 mm 1 mps 722 mmHg 28%
    13:00 +39°C° 0 mm 1 mps 721 mmHg 25%
    14:00 +38°C° 0 mm 0 mps 721 mmHg 22%
    15:00 +36°C° 0 mm 0 mps 721 mmHg 25%
    16:00 +36°C° 0 mm 1 mps 721 mmHg 28%
    17:00 +34°C° 0 mm 1 mps 721 mmHg 31%
    18:00 +33°C° 0 mm 1 mps 721 mmHg 33%
    19:00 +32°C° 0 mm 1 mps 721 mmHg 36%
    20:00 +31°C° 0 mm 1 mps 722 mmHg 38%
    21:00 +31°C° 0 mm 1 mps 722 mmHg 40%
    22:00 +30°C° 0 mm 1 mps 722 mmHg 42%
    23:00 +30°C° 0 mm 1 mps 722 mmHg 44%
    Show more